When you browse on this site, cookies collect data to enhance your experience and personalize the content and advertising you see.
Visit our Privacy Policy to learn more. By continuing to use the site, you agree to this use of cookies and data.
  • In Netherlands
  • List of Countries
  • For 7 days
  • Water Temperature
  • Weather Map
  • Weather Widgets
  • user-avatar
    Login

    Hourly Weather Tyrgowishte

    Today, 24 August, Saturday

    Time Temperature Precipitation Wind Pressure Humidity
    00:00 +24°C° 0 mm 1 mps 747 mmHg 62%
    01:00 +23°C° 0 mm 1 mps 747 mmHg 65%
    02:00 +22°C° 0 mm 1 mps 747 mmHg 68%
    03:00 +22°C° 0 mm 1 mps 747 mmHg 69%
    04:00 +22°C° 0 mm 1 mps 747 mmHg 71%
    05:00 +21°C° 0 mm 1 mps 747 mmHg 73%
    06:00 +23°C° 0 mm 1 mps 747 mmHg 65%
    07:00 +25°C° 0 mm 2 mps 748 mmHg 58%
    08:00 +27°C° 0 mm 2 mps 748 mmHg 51%
    09:00 +30°C° 0 mm 3 mps 748 mmHg 45%
    10:00 +33°C° 0 mm 4 mps 748 mmHg 38%
    11:00 +35°C° 0 mm 5 mps 748 mmHg 32%
    12:00 +36°C° 0 mm 5 mps 748 mmHg 30%
    13:00 +36°C° 0 mm 5 mps 747 mmHg 27%
    14:00 +37°C° 0 mm 5 mps 747 mmHg 25%
    15:00 +37°C° 0 mm 5 mps 747 mmHg 25%
    16:00 +36°C° 0 mm 5 mps 746 mmHg 26%
    17:00 +36°C° 0 mm 5 mps 746 mmHg 27%
    18:00 +33°C° 0 mm 4 mps 746 mmHg 36%
    19:00 +30°C° 0 mm 3 mps 746 mmHg 44%
    20:00 +27°C° 0 mm 2 mps 746 mmHg 52%
    21:00 +26°C° 0 mm 2 mps 746 mmHg 57%
    22:00 +25°C° 0 mm 1 mps 746 mmHg 62%
    23:00 +24°C° 0 mm 1 mps 746 mmHg 67%

    Tomorrow, 25 August, Sunday

    Time Temperature Precipitation Wind Pressure Humidity
    00:00 +23°C° 0 mm 1 mps 746 mmHg 68%
    01:00 +23°C° 0 mm 1 mps 746 mmHg 68%
    02:00 +22°C° 0 mm 1 mps 746 mmHg 69%
    03:00 +22°C° 0 mm 1 mps 746 mmHg 70%
    04:00 +21°C° 0 mm 1 mps 745 mmHg 71%
    05:00 +21°C° 0 mm 1 mps 745 mmHg 73%
    06:00 +23°C° 0 mm 2 mps 746 mmHg 65%
    07:00 +25°C° 0 mm 2 mps 746 mmHg 58%
    08:00 +28°C° 0 mm 3 mps 746 mmHg 50%
    09:00 +30°C° 0 mm 3 mps 746 mmHg 44%
    10:00 +34°C° 0 mm 4 mps 746 mmHg 38%
    11:00 +36°C° 0 mm 5 mps 746 mmHg 32%
    12:00 +36°C° 0 mm 5 mps 746 mmHg 29%
    13:00 +37°C° 0 mm 5 mps 746 mmHg 27%
    14:00 +37°C° 0 mm 5 mps 745 mmHg 25%
    15:00 +36°C° 0 mm 5 mps 745 mmHg 27%
    16:00 +36°C° 0 mm 5 mps 745 mmHg 29%
    17:00 +35°C° 0 mm 5 mps 745 mmHg 31%
    18:00 +33°C° 0 mm 5 mps 745 mmHg 39%
    19:00 +29°C° 0 mm 4 mps 745 mmHg 47%
    20:00 +27°C° 0 mm 4 mps 746 mmHg 55%
    21:00 +26°C° 0 mm 3 mps 746 mmHg 64%
    22:00 +24°C° 0 mm 2 mps 746 mmHg 73%
    23:00 +21°C° 0 mm 2 mps 746 mmHg 81%

    Day after tomorrow, 26 August, Monday

    Time Temperature Precipitation Wind Pressure Humidity
    00:00 +22°C° 0 mm 1 mps 746 mmHg 83%
    01:00 +22°C° 0 mm 1 mps 746 mmHg 85%
    02:00 +21°C° 0 mm 1 mps 745 mmHg 87%
    03:00 +21°C° 0 mm 1 mps 746 mmHg 87%
    04:00 +21°C° 0 mm 1 mps 746 mmHg 87%
    05:00 +21°C° 0 mm 1 mps 746 mmHg 87%
    06:00 +23°C° 0 mm 1 mps 746 mmHg 78%
    07:00 +25°C° 0 mm 2 mps 746 mmHg 69%
    08:00 +27°C° 0 mm 2 mps 746 mmHg 60%
    09:00 +30°C° 0 mm 3 mps 746 mmHg 50%
    10:00 +33°C° 0 mm 4 mps 746 mmHg 40%
    11:00 +36°C° 0 mm 5 mps 747 mmHg 31%
    12:00 +35°C° 0 mm 5 mps 746 mmHg 31%
    13:00 +35°C° 0 mm 5 mps 746 mmHg 31%
    14:00 +35°C° 0 mm 4 mps 746 mmHg 31%
    15:00 +34°C° 0 mm 4 mps 746 mmHg 31%
    16:00 +34°C° 0 mm 4 mps 745 mmHg 31%
    17:00 +34°C° 0 mm 4 mps 745 mmHg 31%
    18:00 +30°C° 0 mm 4 mps 745 mmHg 39%
    19:00 +28°C° 0 mm 3 mps 746 mmHg 46%
    20:00 +26°C° 0 mm 3 mps 746 mmHg 53%
    21:00 +24°C° 0 mm 2 mps 746 mmHg 61%
    22:00 +23°C° 0 mm 2 mps 746 mmHg 69%
    23:00 +21°C° 0 mm 1 mps 746 mmHg 77%

    27 August, Tuesday

    Time Temperature Precipitation Wind Pressure Humidity
    00:00 +21°C° 0 mm 1 mps 746 mmHg 79%
    01:00 +18°C° 0 mm 0 mps 746 mmHg 80%
    02:00 +18°C° 0 mm 0 mps 745 mmHg 82%
    03:00 +17°C° 0 mm 0 mps 745 mmHg 84%
    04:00 +19°C° 0 mm 1 mps 746 mmHg 85%
    05:00 +19°C° 0 mm 1 mps 746 mmHg 87%
    06:00 +21°C° 0 mm 1 mps 746 mmHg 78%
    07:00 +23°C° 0 mm 2 mps 746 mmHg 69%
    08:00 +25°C° 0 mm 2 mps 746 mmHg 59%
    09:00 +27°C° 0 mm 2 mps 746 mmHg 51%
    10:00 +30°C° 0 mm 3 mps 746 mmHg 43%
    11:00 +33°C° 0 mm 3 mps 746 mmHg 35%
    12:00 +34°C° 0 mm 3 mps 746 mmHg 31%
    13:00 +35°C° 0 mm 3 mps 746 mmHg 27%
    14:00 +36°C° 0 mm 3 mps 746 mmHg 23%
    15:00 +36°C° 0 mm 4 mps 745 mmHg 24%
    16:00 +35°C° 0 mm 4 mps 745 mmHg 25%
    17:00 +34°C° 0 mm 5 mps 745 mmHg 26%
    18:00 +30°C° 0 mm 4 mps 745 mmHg 36%
    19:00 +27°C° 0 mm 4 mps 745 mmHg 45%
    20:00 +24°C° 0 mm 3 mps 745 mmHg 54%
    21:00 +23°C° 0 mm 2 mps 746 mmHg 61%
    22:00 +21°C° 0 mm 2 mps 746 mmHg 69%
    23:00 +21°C° 0 mm 1 mps 746 mmHg 76%

    28 August, Wednesday

    Time Temperature Precipitation Wind Pressure Humidity
    00:00 +20°C° 0 mm 1 mps 746 mmHg 79%
    01:00 +20°C° 0 mm 1 mps 746 mmHg 81%
    02:00 +19°C° 0 mm 1 mps 746 mmHg 83%
    03:00 +19°C° 0 mm 1 mps 746 mmHg 82%
    04:00 +18°C° 0 mm 1 mps 746 mmHg 82%
    05:00 +18°C° 0 mm 1 mps 746 mmHg 82%
    06:00 +20°C° 0 mm 1 mps 746 mmHg 71%
    07:00 +21°C° 0 mm 2 mps 747 mmHg 61%
    08:00 +25°C° 0 mm 2 mps 747 mmHg 51%
    09:00 +27°C° 0 mm 3 mps 747 mmHg 42%
    10:00 +30°C° 0 mm 4 mps 747 mmHg 33%
    11:00 +33°C° 0 mm 5 mps 747 mmHg 24%
    12:00 +34°C° 0 mm 5 mps 746 mmHg 22%
    13:00 +35°C° 0 mm 5 mps 746 mmHg 20%
    14:00 +36°C° 0 mm 5 mps 746 mmHg 17%
    15:00 +35°C° 0 mm 5 mps 746 mmHg 19%
    16:00 +34°C° 0 mm 5 mps 745 mmHg 20%
    17:00 +33°C° 0 mm 5 mps 745 mmHg 21%
    18:00 +29°C° 0 mm 5 mps 745 mmHg 31%
    19:00 +26°C° 0 mm 4 mps 745 mmHg 40%
    20:00 +21°C° 0 mm 3 mps 745 mmHg 49%
    21:00 +20°C° 0 mm 2 mps 745 mmHg 56%
    22:00 +19°C° 0 mm 2 mps 745 mmHg 63%
    23:00 +18°C° 0 mm 1 mps 746 mmHg 70%

    29 August, Thursday

    Time Temperature Precipitation Wind Pressure Humidity
    00:00 +18°C° 0 mm 1 mps 745 mmHg 71%
    01:00 +16°C° 0 mm 1 mps 745 mmHg 71%
    02:00 +15°C° 0 mm 0 mps 745 mmHg 72%
    03:00 +14°C° 0 mm 0 mps 745 mmHg 73%
    04:00 +14°C° 0 mm 0 mps 745 mmHg 75%
    05:00 +13°C° 0 mm 0 mps 745 mmHg 76%
    06:00 +18°C° 0 mm 1 mps 745 mmHg 67%
    07:00 +20°C° 0 mm 1 mps 745 mmHg 58%
    08:00 +23°C° 0 mm 1 mps 745 mmHg 48%
    09:00 +25°C° 0 mm 2 mps 745 mmHg 41%
    10:00 +28°C° 0 mm 3 mps 745 mmHg 33%
    11:00 +30°C° 0 mm 4 mps 745 mmHg 26%
    12:00 +32°C° 0 mm 4 mps 745 mmHg 24%
    13:00 +33°C° 0 mm 3 mps 745 mmHg 22%
    14:00 +34°C° 0 mm 3 mps 744 mmHg 21%
    15:00 +34°C° 0 mm 4 mps 744 mmHg 23%
    16:00 +33°C° 0 mm 4 mps 744 mmHg 25%
    17:00 +33°C° 0 mm 5 mps 744 mmHg 28%
    18:00 +29°C° 0 mm 4 mps 744 mmHg 37%
    19:00 +26°C° 0 mm 4 mps 744 mmHg 46%
    20:00 +22°C° 0 mm 3 mps 744 mmHg 54%
    21:00 +21°C° 0 mm 3 mps 744 mmHg 61%
    22:00 +19°C° 0 mm 2 mps 744 mmHg 67%
    23:00 +18°C° 0 mm 2 mps 744 mmHg 73%
    Show more